Вернуться в каталог

STARLINK-5997

АктивенСвязьSSO
NORAD 56327·PAYLOAD·🇺🇸 United States

Запущен Apr 27, 2023 с Vandenberg Space Force Base

Loading…

Ближайшие Пролёты (ближайшие 24 часа)

TLE

СвежийSource: CelesTrak SupGP

Эпоха: Sep 14, 2026, 22:23 UTC

1 56327C 23058L   26257.93312500  .00545310  00000+0  32879-1 0  2570
2 56327  97.2845 252.0423 0001338  85.7161 146.0142 15.10574777    14

Отслеживайте STARLINK-5997 в реальном времени с AllMySat

Download on the App Store